Location: Godiavel Galaoual
(15.2485°N, 12.6604°W)
Time: 01:55:36
(UTC+00:00)

Transit 2A Rocket - All Passes

Search period start: 13 June 2021 00:00
Search period end: 23 June 2021 00:00
Orbit: 592 x 910 km, 66.7° (Epoch: 12 June)

Date Brightness Start Highest point End Pass type
(mag) Time Alt. Az. Time Alt. Az. Time Alt. Az.
13 Jun - 01:18:46 10° S 01:22:46 33° ESE 01:26:38 10° NE night (unlit)
13 Jun - 03:04:19 10° WNW 03:05:10 10° WNW 03:06:01 10° NW visible
13 Jun - 11:56:45 10° NNE 12:01:12 26° ENE 12:05:57 10° ESE daylight
13 Jun - 13:39:00 10° NW 13:43:36 27° WSW 13:48:28 10° SSW daylight
14 Jun - 00:37:48 10° SE 00:40:16 15° ESE 00:42:40 10° ENE night (unlit)
14 Jun - 02:18:56 10° WSW 02:22:29 24° WNW 02:25:57 10° NNW visible
14 Jun - 11:16:06 10° NE 11:18:32 13° ENE 11:21:01 10° E daylight
14 Jun - 12:55:42 10° NW 13:01:03 53° WSW 13:06:46 10° S daylight
15 Jun - 01:35:34 10° SSW 01:39:53 56° WNW 01:44:05 10° N night (unlit)
15 Jun - 12:12:59 10° NNW 12:18:28 79° ENE 12:24:22 10° SSE daylight
16 Jun - 00:52:59 10° S 00:57:20 59° ESE 01:01:33 10° NNE night (unlit)
16 Jun - 11:30:47 10° N 11:35:53 39° ENE 11:41:20 10° SE daylight
16 Jun - 13:14:38 10° WNW 13:18:13 17° WSW 13:21:58 10° SSW daylight
17 Jun - 00:11:12 10° SSE 00:14:49 25° ESE 00:18:19 10° NE night (unlit)
17 Jun - 01:54:47 10° W 01:57:09 14° WNW 01:59:28 10° NNW night (unlit)
17 Jun - 10:49:14 10° NNE 10:53:14 20° ENE 10:57:27 10° ESE daylight
17 Jun - 12:30:41 10° NW 12:35:40 34° WSW 12:40:58 10° S daylight
17 Jun - 23:31:26 10° ESE 23:32:18 11° ESE 23:33:11 10° E night (unlit)
18 Jun - 01:10:35 10° SW 01:14:29 32° WNW 01:18:19 10° N night (unlit)
18 Jun - 11:47:37 10° NNW 11:53:07 68° WSW 11:59:00 10° SSE daylight
19 Jun - 00:27:30 10° SSW 00:31:54 77° WNW 00:36:11 10° NNE night (unlit)
19 Jun - 11:05:05 10° NNW 11:10:32 62° ENE 11:16:23 10° SSE daylight
19 Jun - 12:51:42 10° W 12:52:50 11° WSW 12:53:58 10° WSW daylight
19 Jun - 23:45:12 10° S 23:49:22 42° ESE 23:53:25 10° NE night (unlit)
20 Jun - 10:23:04 10° N 10:27:56 31° ENE 10:33:05 10° SE daylight
20 Jun - 12:06:01 10° WNW 12:10:17 22° WSW 12:14:47 10° SSW daylight
20 Jun - 23:03:49 10° SSE 23:06:51 18° ESE 23:09:50 10° ENE night (unlit)
21 Jun - 00:46:02 10° WSW 00:49:07 19° WNW 00:52:10 10° NNW night (unlit)
21 Jun - 09:41:53 10° NNE 09:45:16 16° ENE 09:48:45 10° ESE daylight
21 Jun - 11:22:28 10° NW 11:27:44 44° WSW 11:33:21 10° S daylight
22 Jun - 00:02:20 10° SW 00:06:30 43° WNW 00:10:33 10° N night (unlit)
22 Jun - 10:39:36 10° NNW 10:45:10 86° WSW 10:51:09 10° SSE daylight
22 Jun - 23:19:33 10° SSW 23:23:55 77° ESE 23:28:11 10° NNE night (unlit)
